Hulett, WY

6:44 PM MDT on May 25, 2017 (GMT -0600)
Hulett

Weather History for KW43 - September, 2013

Change the Weather History Date:

Thursday, September 26, 2013

  Actual Average (KEFC) Record (KEFC)
Temperature  
Mean Temperature 48 °F -  
Max Temperature 55 °F 75 °F 95 °F (1974)
Min Temperature 41 °F 39 °F 22 °F (1972)
Degree Days  
Heating Degree Days 17    
Moisture  
Dew Point 41 °F    
Average Humidity 77    
Maximum Humidity 100    
Minimum Humidity 54    
Precipitation  
Precipitation 0.00 in - - ()
Sea Level Pressure  
Sea Level Pressure 29.82 in    
Wind  
Wind Speed 7 mph (NW)    
Max Wind Speed 14 mph    
Max Gust Speed 22 mph    
Visibility 9 miles    
Events Rain    
Averages and records for this station are not official NWS values.
T = Trace of Precipitation, MM = Missing Value Source: NWS Daily Summary

Daily Weather History Graph

Daily Weather History Graph

Search for Another Location

Airport or City:

Trip Planner

Search our weather history database for the weather conditions in past years. The results will help you decide how hot, cold, wet, or windy it might be!

Date:

Astronomy

Sep. 26, 2013 Rise Set
Actual Time 6:50 AM MDT 6:47 PM MDT
Civil Twilight 6:21 AM MDT 7:16 PM MDT
Nautical Twilight 5:47 AM MDT 7:50 PM MDT
Astronomical Twilight 5:12 AM MDT 8:25 PM MDT
Moon 11:36 PM MDT 1:56 PM MDT
Length of Visible Light 12h 55m
Length of Day
11h 57m
Waning Gibbous, 54% of the Moon is Illuminated
Sep 26
Waning Gibbous
Sep 26
Last Quarter
Oct 4
New
Oct 11
First Quarter
Oct 18
Full

Hourly Weather History & Observations

Time (MDT) Temp. Windchill Dew Point Humidity Pressure Visibility Wind Dir Wind Speed Gust Speed Precip Events Conditions
12:15 AM 46.4 °F 43.5 °F 46.4 °F 100% 29.67 in 7.0 mi NNE 5.8 mph - N/A   Overcast
12:35 AM 46.4 °F 45.2 °F 46.4 °F 100% 29.69 in 5.0 mi NE 3.5 mph - N/A Rain Rain
12:55 AM 46.4 °F - 46.4 °F 100% 29.69 in 7.0 mi Calm Calm - N/A Rain Light Rain
1:15 AM 46.4 °F 44.3 °F 44.6 °F 93% 29.70 in 10.0 mi WNW 4.6 mph - N/A Rain Light Rain
1:35 AM 46.4 °F 44.3 °F 44.6 °F 93% 29.71 in 7.0 mi West 4.6 mph - N/A   Light Drizzle
1:55 AM 46.4 °F 43.5 °F 44.6 °F 93% 29.70 in 1.0 mi West 5.8 mph - N/A   Overcast
2:15 AM 46.4 °F 43.5 °F 44.6 °F 93% 29.70 in 10.0 mi West 5.8 mph - N/A   Overcast
2:35 AM 46.4 °F 44.3 °F 44.6 °F 93% 29.69 in 10.0 mi WSW 4.6 mph - N/A   Overcast
2:55 AM 46.4 °F 44.3 °F 44.6 °F 93% 29.69 in 2.5 mi West 4.6 mph - N/A   Overcast
3:15 AM 46.4 °F - 44.6 °F 93% 29.67 in 2.5 mi North - - N/A   Overcast
3:35 AM 46.4 °F - 44.6 °F 93% 29.67 in 1.0 mi North - - N/A   Overcast
3:55 AM 46.4 °F 42.4 °F 44.6 °F 93% 29.69 in 4.0 mi West 8.1 mph - N/A   Overcast
4:15 AM 46.4 °F 42.9 °F 44.6 °F 93% 29.70 in 4.0 mi West 6.9 mph 16.1 mph N/A   Overcast
4:35 AM 46.4 °F 42.4 °F 44.6 °F 93% 29.71 in 10.0 mi West 8.1 mph - N/A   Overcast
4:55 AM 46.4 °F 42.9 °F 44.6 °F 93% 29.71 in 1.2 mi West 6.9 mph - N/A Rain Light Rain
5:15 AM 46.4 °F 44.3 °F 44.6 °F 93% 29.73 in 1.5 mi West 4.6 mph - N/A Rain Rain
5:35 AM 46.4 °F 44.3 °F 44.6 °F 93% 29.74 in 4.0 mi West 4.6 mph - N/A   Overcast
5:55 AM 46.4 °F 44.3 °F 44.6 °F 93% 29.75 in 3.0 mi West 4.6 mph - N/A   Overcast
6:15 AM 46.4 °F 45.2 °F 44.6 °F 93% 29.75 in 4.0 mi West 3.5 mph - N/A   Overcast
6:35 AM 46.4 °F 45.2 °F 44.6 °F 93% 29.75 in 10.0 mi West 3.5 mph - N/A   Overcast
6:55 AM 46.4 °F 43.5 °F 44.6 °F 93% 29.77 in 10.0 mi West 5.8 mph - N/A   Overcast
7:15 AM 46.4 °F 44.3 °F 44.6 °F 93% 29.78 in 7.0 mi West 4.6 mph - N/A   Overcast
7:35 AM 46.4 °F 45.2 °F 44.6 °F 93% 29.78 in 10.0 mi West 3.5 mph - N/A   Overcast
7:55 AM 46.4 °F - 44.6 °F 93% 29.79 in 10.0 mi North - - N/A   Overcast
8:15 AM 46.4 °F - 44.6 °F 93% 29.79 in 10.0 mi North - - N/A   Overcast
8:35 AM 46.4 °F - 44.6 °F 93% 29.80 in 7.0 mi North - - N/A   Overcast
8:55 AM 46.4 °F 44.3 °F 44.6 °F 93% 29.80 in 10.0 mi West 4.6 mph - N/A   Overcast
9:15 AM 46.4 °F - 44.6 °F 93% 29.81 in 10.0 mi North - - N/A   Overcast
9:35 AM 48.2 °F - 44.6 °F 87% 29.81 in 10.0 mi West 6.9 mph - N/A   Overcast
9:55 AM 48.2 °F - 44.6 °F 87% 29.82 in 10.0 mi WSW 5.8 mph - N/A   Overcast
10:15 AM 50.0 °F - 44.6 °F 82% 29.82 in 10.0 mi WSW 8.1 mph - N/A   Mostly Cloudy
10:35 AM 50.0 °F - 42.8 °F 76% 29.83 in 10.0 mi WNW 6.9 mph - N/A   Overcast
10:55 AM 51.8 °F - 42.8 °F 71% 29.83 in 10.0 mi North - - N/A   Mostly Cloudy
11:15 AM 50.0 °F - 42.8 °F 76% 29.84 in 10.0 mi West 4.6 mph - N/A   Mostly Cloudy
11:35 AM 53.6 °F - 41.0 °F 62% 29.84 in 10.0 mi WNW 8.1 mph - N/A   Overcast
11:55 AM 53.6 °F - 41.0 °F 62% 29.84 in 10.0 mi West 6.9 mph - N/A   Overcast
12:15 PM 53.6 °F - 41.0 °F 62% 29.84 in 10.0 mi West 4.6 mph - N/A   Scattered Clouds
12:35 PM 53.6 °F - 42.8 °F 67% 29.84 in 10.0 mi NW 10.4 mph 16.1 mph N/A   Mostly Cloudy
12:55 PM 55.4 °F - 42.8 °F 63% 29.84 in 10.0 mi West 8.1 mph - N/A   Mostly Cloudy
1:15 PM 53.6 °F - 41.0 °F 62% 29.84 in 10.0 mi WNW 5.8 mph - N/A   Mostly Cloudy
1:35 PM 55.4 °F - 42.8 °F 63% 29.84 in 10.0 mi NNW 9.2 mph - N/A   Overcast
1:55 PM 53.6 °F - 41.0 °F 62% 29.84 in 10.0 mi WNW 9.2 mph - N/A   Mostly Cloudy
2:15 PM 55.4 °F - 41.0 °F 58% 29.85 in 10.0 mi WNW 6.9 mph - N/A   Mostly Cloudy
2:35 PM 55.4 °F - 42.8 °F 63% 29.85 in 10.0 mi NNW 6.9 mph - N/A   Mostly Cloudy
2:55 PM 55.4 °F - 39.2 °F 54% 29.86 in 10.0 mi NW 8.1 mph - N/A   Overcast
3:15 PM 55.4 °F - 39.2 °F 54% 29.85 in 10.0 mi NW 8.1 mph - N/A   Scattered Clouds
3:35 PM 55.4 °F - 39.2 °F 54% 29.84 in 10.0 mi NNW 11.5 mph 16.1 mph N/A   Scattered Clouds
3:55 PM 53.6 °F - 37.4 °F 54% 29.84 in 10.0 mi NW 8.1 mph - N/A   Scattered Clouds
4:15 PM 53.6 °F - 39.2 °F 58% 29.84 in 10.0 mi NNW 12.7 mph 21.9 mph N/A   Scattered Clouds
4:35 PM 51.8 °F - 39.2 °F 62% 29.87 in 10.0 mi North 11.5 mph - N/A   Clear
4:55 PM 51.8 °F - 37.4 °F 58% 29.88 in 10.0 mi North 9.2 mph - N/A   Mostly Cloudy
5:15 PM 51.8 °F - 37.4 °F 58% 29.90 in 10.0 mi North 8.1 mph - N/A   Overcast
5:35 PM 50.0 °F - 37.4 °F 62% 29.90 in 10.0 mi North 11.5 mph - N/A   Overcast
5:55 PM 50.0 °F - 35.6 °F 58% 29.89 in 10.0 mi North 10.4 mph - N/A   Mostly Cloudy
6:15 PM 50.0 °F - 35.6 °F 58% 29.90 in 10.0 mi NNW 10.4 mph - N/A   Overcast
6:35 PM 50.0 °F - 35.6 °F 58% 29.91 in 10.0 mi North 5.8 mph - N/A   Overcast
6:55 PM 48.2 °F - 35.6 °F 62% 29.90 in 10.0 mi North 9.2 mph 16.1 mph N/A   Mostly Cloudy
7:15 PM 46.4 °F 41.1 °F 35.6 °F 66% 29.91 in 10.0 mi North 11.5 mph - N/A   Mostly Cloudy
7:35 PM 46.4 °F 41.9 °F 35.6 °F 66% 29.92 in 10.0 mi North 9.2 mph 17.3 mph N/A   Overcast
7:55 PM 44.6 °F 38.1 °F 35.6 °F 71% 29.95 in 10.0 mi North 13.8 mph 18.4 mph N/A   Overcast
8:15 PM 44.6 °F 39.7 °F 35.6 °F 71% 29.94 in 10.0 mi NNE 9.2 mph - N/A   Overcast
8:35 PM 44.6 °F 40.2 °F 35.6 °F 71% 29.96 in 10.0 mi North 8.1 mph - N/A   Overcast
8:55 PM 44.6 °F 40.7 °F 35.6 °F 71% 29.97 in 10.0 mi NNE 6.9 mph - N/A   Overcast
9:15 PM 44.6 °F 40.2 °F 35.6 °F 71% 29.96 in 10.0 mi North 8.1 mph - N/A   Overcast
9:35 PM 44.6 °F 38.8 °F 35.6 °F 71% 29.94 in 10.0 mi North 11.5 mph - N/A   Overcast
9:55 PM 42.8 °F 36.6 °F 35.6 °F 76% 29.95 in 10.0 mi NNE 11.5 mph 17.3 mph N/A   Overcast
10:15 PM 42.8 °F 38.0 °F 35.6 °F 76% 29.97 in 10.0 mi NNE 8.1 mph - N/A   Overcast
10:35 PM 42.8 °F 35.8 °F 35.6 °F 76% 29.94 in 10.0 mi NNE 13.8 mph 19.6 mph N/A   Overcast
10:55 PM 42.8 °F 35.8 °F 35.6 °F 76% 29.94 in 10.0 mi North 13.8 mph 19.6 mph N/A   Overcast
11:15 PM 42.8 °F 37.5 °F 35.6 °F 76% 29.94 in 10.0 mi North 9.2 mph 16.1 mph N/A   Overcast
11:35 PM 41.0 °F 34.3 °F 35.6 °F 81% 29.95 in 10.0 mi North 11.5 mph 20.7 mph N/A   Overcast
11:55 PM 41.0 °F 34.7 °F 35.6 °F 81% 29.92 in 10.0 mi NNE 10.4 mph 16.1 mph N/A   Overcast